SCP
0 -0 0 0 0 -0 0 0 -0 -0 -0 0 0 -0 -0 -0 -0 -0 -0 -0 -0 -0 -0 -0 -0 -0 -0 -0 -0 -0 0 0 0 0 0 0 0 0 0 0 0 0 0
0 -0 0 1 0 -0 0 0 -0 -0 -0 -0 0 -0 -0 -0 -0 -0 -0 -0 -0 -0 -0 -0 -0 -0 -0 -0 -0 -0 0 0 0 0 0 0 0 0 0 0 0 0 0
0 0 -0 0 0 0 0 0 0 -0 -0 -0 -0 0 -0 -0 -0 -0 -0 -0 -0 -0 -0 -0 -0 -0 0 0 0 0 0 0 0 0 -0 0 0 0 0 0 0 0 0
0 0 0 1 1 0 0 0 0 0 -0 -0 -0 -0 0 -0 -0 -0 -0 -0 -0 -0 -0 -0 -0 -0 0 0 0 0 0 0 0 0 0 0 0 0 0 0 0 0 0
0 0 0 0 1 0 0 0 0 0 0 -0 -0 0 0 -0 -0 -0 -0 -0 -0 -0 -0 -0 -0 -0 0 0 0 0 0 0 -0 -0 0 0 0 0 0 0 0 0 0
0 0 0 -0 1 1 0 0 0 0 0 0 0 0 0 0 -0 -0 -0 -0 -0 -0 -0 -0 -0 0 0 0 0 0 0 -0 -0 0 0 0 0 0 0 0 0 0 0
0 0 0 0 0 1 1 0 0 0 0 0 0 0 0 0 0 0 -0 -0 -0 -0 -0 -0 0 0 0 0 0 0 0 0 0 0 0 0 0 0 0 0 0 0 0
0 0 0 0 0 1 1 1 0 1 0 0 0 0 0 0 0 0 0 0 0 0 0 0 0 0 0 0 0 0 0 0 -0 0 0 0 0 0 0 0 0 0 0
0 1 0 0 0 0 1 1 1 1 1 1 0 0 0 0 0 0 0 0 0 0 0 0 0 0 0 0 0 0 0 0 0 0 0 0 0 0 0 0 0 0 0
1 1 0 0 0 0 0 1 1 1 1 1 1 0 0 0 0 0 0 0 0 0 0 0 0 0 0 0 0 0 0 0 -0 0 0 0 0 0 0 0 0 0 0
1 0 1 0 0 0 0 1 1 1 1 1 1 1 0 0 0 0 0 0 0 0 0 0 0 0 0 0 0 0 0 0 0 0 0 0 0 0 0 0 0 0 0
0 1 1 0 0 0 0 0 0 0 0 0 0 0 0 0 0 0 0 0 0 0 0 0 0 0 0 -0 0 0 0 0 0 0 0 0 0 0 0 0 0 0 0
0 0 1 1 1 0 0 0 0 0 0 0 0 0 0 0 0 0 0 0 0 0 0 0 0 0 0 0 0 0 0 0 0 0 0 0 0 0 0 0 0 0 0
0 0 1 2 2 0 0 0 0 0 0 0 0 0 0 0 0 0 0 0 0 0 0 0 0 0 0 0 0 0 0 0 0 0 0 0 0 0 0 0 0 0 0
0 0 1 2 2 1 3 0 0 0 0 0 0 0 0 0 1 0 0 0 0 0 0 0 0 0 0 0 0 0 0 0 0 0 0 0 0 0 0 0 0 0 0
0 0 0 2 3 2 2 2 1 0 0 0 0 1 1 0 1 0 0 0 0 0 0 0 0 0 0 0 0 0 0 0 0 0 0 0 0 0 0 0 0 0 0
0 0 0 2 2 2 2 3 1 0 0 0 0 1 1 1 2 0 0 0 0 0 0 0 1 0 0 0 0 0 0 0 0 0 0 0 0 0 0 0 0 0 0
0 0 1 2 2 2 2 2 1 1 0 0 0 1 1 1 1 1 0 0 0 0 0 0 0 0 0 0 0 0 0 0 0 0 0 0 0 0 0 0 0 0 0
0 0 0 1 1 1 3 3 2 2 1 0 0 0 1 0 0 0 0 0 2 0 0 0 0 0 0 0 0 0 0 0 0 0 0 0 0 0 0 0 0 0 0
0 0 0 1 3 4 3 4 3 2 1 0 0 0 1 0 0 0 0 1 1 0 0 0 0 0 0 0 0 0 0 0 0 0 0 0 0 0 0 0 0 0 0
0 0 1 1 4 6 6 4 4 3 2 1 0 1 1 0 0 0 0 2 1 1 1 1 1 1 0 0 0 0 0 0 0 0 0 0 0 0 0 0 0 0 0
0 0 1 4 6 7 5 4 5 3 2 1 1 1 1 0 1 0 2 2 1 0 1 1 1 0 0 0 0 0 0 0 0 0 0 0 0 0 0 0 0 0 0
0 0 0 4 5 6 5 5 5 3 3 1 1 1 1 1 0 1 1 1 2 2 1 1 1 1 0 0 0 0 0 0 0 0 0 0 0 0 0 0 0 0 0
0 0 0 3 4 4 5 4 3 4 3 3 1 1 1 1 0 0 1 1 2 1 3 1 1 1 1 1 0 0 0 0 0 0 0 0 0 0 0 0 0 0 0
0 0 0 3 3 3 4 4 6 3 4 4 2 3 1 2 1 0 1 2 1 1 2 2 0 0 0 0 0 0 0 0 0 0 0 0 0 0 0 0 0 0 0
0 0 0 2 3 4 3 4 4 3 3 3 3 4 1 1 1 1 1 2 2 2 1 0 0 0 0 0 0 0 0 0 0 0 0 0 0 0 0 0 0 0 0
Wind_Speed_500mb
16 32 42 45 44 43 40 38 42 39 34 39 42 41 39 36 31 29 26 24 20 18 17 15 12 9 8 7 5 5 6 7 8 10 12 12 13 14 17 20 23 15 37
20 30 44 43 45 47 40 41 44 41 36 37 41 41 39 36 31 27 24 20 20 19 16 15 13 10 6 4 4 5 5 6 8 11 16 10 9 24 19 22 25 32 36
25 35 49 46 45 45 43 43 45 44 39 38 40 42 39 35 31 26 23 21 20 17 16 14 12 9 6 3 3 5 5 6 10 15 18 5 11 31 21 22 28 32 33
21 28 49 47 45 46 43 46 48 47 42 39 41 42 40 34 30 25 22 23 21 18 17 14 11 8 4 1 2 4 6 9 10 18 14 10 21 23 20 26 31 31 32
23 28 46 50 47 44 46 47 49 48 44 40 38 40 39 34 30 25 23 23 22 20 16 13 10 6 3 1 3 5 7 9 14 13 9 8 10 21 22 27 35 35 33
19 25 41 50 49 46 47 49 50 51 46 41 39 39 37 33 30 26 24 24 22 19 16 13 10 6 2 3 4 5 7 12 8 10 8 16 19 22 26 30 34 35 39
14 24 36 50 52 49 46 49 51 51 48 43 41 40 37 32 31 27 26 26 24 21 17 14 10 6 2 3 4 4 7 10 12 12 23 6 22 23 28 33 35 36 41
18 23 33 48 56 52 51 49 53 52 49 46 42 40 36 33 33 28 27 26 24 21 18 15 11 7 4 3 6 6 8 12 3 15 7 21 29 27 30 31 33 38 45
19 26 31 45 60 55 53 51 52 54 51 47 44 41 38 37 34 31 29 27 23 20 18 15 11 8 5 4 7 9 9 12 14 8 14 22 24 32 30 30 33 39 45
18 24 31 36 60 60 57 55 53 53 52 49 45 42 40 39 34 33 30 27 23 20 18 15 12 9 6 4 5 8 13 17 8 13 15 23 28 32 29 31 34 41 44
9 24 35 37 46 53 51 59 58 56 55 51 47 44 43 39 37 33 29 27 24 20 17 14 11 9 7 6 13 19 20 9 19 13 23 27 34 32 29 31 36 42 44
25 29 39 40 49 50 47 51 61 60 58 53 51 49 44 31 31 26 30 29 26 20 16 13 12 8 5 6 18 21 17 14 18 17 27 36 35 31 30 33 36 41 43
26 27 43 48 53 51 50 49 57 58 47 49 48 49 42 33 30 29 26 32 26 21 12 10 10 5 10 14 11 15 17 17 18 18 30 34 39 34 32 34 38 42 43
40 34 36 56 57 54 51 47 51 50 52 49 48 53 45 40 34 34 24 23 20 19 14 17 12 12 14 13 18 17 15 17 16 12 34 34 41 39 35 34 36 38 43
42 31 38 51 63 61 57 48 50 52 55 51 51 50 47 43 37 34 30 26 21 20 18 15 14 14 12 16 13 15 16 18 17 14 24 39 38 42 38 37 38 38 40
42 46 39 50 66 62 63 56 54 56 50 52 51 50 52 44 44 36 31 27 24 21 17 16 15 14 13 14 15 16 16 19 15 16 13 34 40 38 38 35 36 37 44
47 47 42 47 65 71 70 59 57 54 51 51 48 52 53 47 49 37 30 29 25 23 23 19 17 15 13 16 19 16 17 16 16 17 17 15 32 38 32 37 37 42 48
48 47 54 49 55 75 74 68 59 52 52 49 47 52 57 54 49 47 35 33 28 26 19 19 15 14 15 16 17 19 17 19 19 18 16 15 14 18 32 32 46 48 48
48 47 50 61 58 64 80 71 64 57 55 51 49 46 52 54 52 52 40 35 38 22 22 20 17 17 15 18 18 20 17 15 16 15 21 15 16 14 17 27 41 46 45
56 55 59 60 66 67 74 75 70 61 57 51 50 50 54 50 48 50 38 36 38 26 23 19 18 15 15 16 18 22 23 15 14 13 13 13 16 19 21 28 29 28 43
61 59 57 69 70 72 76 84 78 70 63 58 53 53 54 51 48 54 38 41 36 27 24 26 20 17 12 13 14 20 22 28 20 11 12 12 15 22 25 27 31 30 25
59 63 58 69 69 77 75 80 81 75 66 62 55 54 55 52 58 55 43 35 36 25 27 25 21 14 11 13 10 17 20 14 13 17 10 15 16 23 23 27 31 34 31
63 61 66 64 72 80 80 77 87 69 65 66 60 54 55 54 54 53 47 32 36 32 22 22 18 18 14 8 16 7 13 16 27 10 20 12 15 24 23 25 33 33 30
66 66 72 64 81 83 88 74 86 79 76 72 64 54 53 56 51 53 47 36 39 30 29 20 23 13 17 12 4 6 9 14 11 16 19 26 25 29 30 32 32 28 31
69 69 67 68 74 85 91 83 91 81 74 70 64 59 56 57 55 46 41 41 34 31 34 31 20 17 7 8 6 6 10 11 10 18 31 25 29 29 30 28 25 28 30
72 73 69 71 70 78 91 87 90 89 76 71 69 64 55 51 51 50 45 42 38 43 33 31 21 19 15 12 4 3 1 5 12 18 26 30 34 32 30 23 25 28 30
Wind_Direction_500mb
169 183 177 173 176 170 175 177 179 176 172 166 163 157 159 158 155 151 151 149 150 150 155 160 157 150 135 112 95 87 86 62 47 33 17 357 352 358 2 4 14 350 336
179 200 182 181 183 174 181 180 185 182 178 172 168 163 164 162 159 156 156 158 156 160 164 169 166 159 142 122 99 77 71 54 43 29 9 337 36 357 353 352 349 339 341
177 208 190 187 189 180 184 186 188 188 184 179 172 169 170 168 163 163 162 161 164 169 173 174 170 170 158 134 84 67 59 35 24 24 40 247 346 336 338 344 343 344 346
191 220 193 192 191 184 187 190 193 193 189 184 176 172 174 174 170 169 170 167 171 176 179 181 185 188 158 139 55 18 11 6 19 47 4 29 316 329 334 338 344 351 350
174 194 195 194 190 192 188 192 194 197 193 186 180 176 177 179 178 177 178 175 175 182 185 194 201 206 192 301 19 14 12 26 42 77 30 360 353 325 339 345 343 346 346
176 191 204 194 194 192 194 191 194 196 196 190 185 183 182 182 186 186 183 180 183 187 194 203 211 221 262 340 2 8 32 51 35 312 30 334 276 329 337 338 341 346 347
193 189 216 198 197 193 198 193 195 195 199 195 192 189 190 189 192 194 188 185 188 196 201 212 223 246 286 327 318 351 20 18 2 13 335 212 307 333 336 339 342 343 345
212 199 228 205 198 196 197 197 197 199 199 199 196 195 196 198 197 200 192 192 193 199 206 217 227 249 283 295 292 322 345 358 319 299 348 287 303 329 333 336 338 343 347
215 207 218 208 196 198 201 199 201 201 200 199 200 201 203 204 202 198 198 199 201 205 211 221 230 243 244 260 299 320 332 351 356 290 327 267 291 321 329 332 337 343 347
201 208 211 199 198 199 201 201 203 204 202 202 203 206 208 206 205 201 203 207 209 212 218 225 238 241 235 263 314 327 332 337 35 322 270 260 297 317 325 328 333 340 346
196 196 203 202 198 198 201 203 202 204 206 205 207 209 208 207 204 202 206 214 220 217 226 239 252 255 253 289 332 324 330 325 317 302 292 287 296 315 321 324 330 336 342
223 216 202 203 199 193 196 204 202 206 207 206 208 206 201 195 201 198 220 219 225 225 229 245 260 260 274 305 286 340 337 313 311 318 283 288 300 314 317 321 325 333 337
250 210 213 204 203 196 194 202 199 203 198 198 197 202 185 196 199 189 217 219 219 227 237 283 264 305 287 273 271 286 294 305 310 312 289 291 303 309 313 317 322 328 334
243 230 220 206 201 196 196 201 191 195 189 192 192 200 182 190 200 196 200 199 196 227 198 220 232 238 252 270 274 281 295 308 306 303 298 299 305 311 309 312 318 323 328
250 251 215 216 200 197 197 202 194 195 192 192 195 198 187 192 201 194 195 192 207 202 220 214 224 244 253 269 266 282 300 309 306 310 298 302 304 310 314 311 311 317 322
244 247 225 204 206 199 194 200 197 194 199 194 196 201 187 190 200 197 193 189 199 201 211 225 237 246 263 256 275 288 304 310 298 288 288 306 307 310 316 318 315 316 318
242 239 235 209 218 199 199 200 197 200 197 196 197 203 188 184 211 190 190 189 197 202 205 217 230 240 252 272 279 299 313 302 310 290 298 295 303 311 320 320 317 315 317
242 235 224 216 216 215 202 200 202 202 197 196 197 199 193 187 211 183 187 191 198 198 203 211 217 231 245 260 278 293 293 300 295 306 306 279 276 295 315 315 310 314 320
242 238 234 218 214 213 208 201 201 202 199 199 196 198 199 195 204 190 188 189 202 195 203 209 218 225 245 271 280 287 296 303 294 299 277 299 308 313 299 309 309 327 324
240 238 241 226 217 217 211 202 203 202 201 201 197 199 202 194 198 190 187 195 207 193 203 204 214 233 231 260 276 280 283 283 292 285 292 312 301 314 321 311 319 325 320
237 236 239 228 216 210 213 203 201 202 201 201 200 197 203 192 195 190 192 196 196 197 200 216 225 239 249 273 294 291 274 271 279 273 276 286 298 312 306 319 325 311 313
234 234 231 224 218 212 211 209 203 198 204 200 198 197 197 191 196 195 185 195 195 197 196 212 207 215 246 276 287 288 293 254 260 300 264 294 300 310 311 304 310 315 315
235 233 231 223 219 217 207 212 204 201 204 199 196 193 200 193 199 195 185 193 206 190 209 209 221 216 241 242 290 288 308 310 319 285 302 299 279 326 319 314 316 313 319
237 231 230 226 222 221 210 204 200 201 198 194 195 198 194 187 194 191 186 188 201 187 206 208 211 204 216 252 253 289 290 301 318 311 306 314 330 330 318 315 319 319 320
236 231 228 226 226 220 212 206 206 199 195 193 194 195 190 186 193 184 183 193 189 181 198 198 205 182 207 195 239 271 291 295 316 318 314 315 315 318 316 313 314 327 323
240 228 220 222 222 220 214 208 200 196 195 189 189 186 190 186 182 178 186 188 185 193 203 198 205 203 193 176 163 98 321 326 327 321 315 320 319 322 318 316 328 330 323
Wind_Speed_850mb
16 32 42 45 44 43 40 38 42 39 34 39 42 41 39 36 31 29 26 24 20 18 17 15 12 9 8 7 5 5 6 7 8 10 12 12 13 14 17 20 23 15 37
20 30 44 43 45 47 40 41 44 41 36 37 41 41 39 36 31 27 24 20 20 19 16 15 13 10 6 4 4 5 5 6 8 11 16 10 9 24 19 22 25 32 36
25 35 49 46 45 45 43 43 45 44 39 38 40 42 39 35 31 26 23 21 20 17 16 14 12 9 6 3 3 5 5 6 10 15 18 5 11 31 21 22 28 32 33
21 28 49 47 45 46 43 46 48 47 42 39 41 42 40 34 30 25 22 23 21 18 17 14 11 8 4 1 2 4 6 9 10 18 14 10 21 23 20 26 31 31 32
23 28 46 50 47 44 46 47 49 48 44 40 38 40 39 34 30 25 23 23 22 20 16 13 10 6 3 1 3 5 7 9 14 13 9 8 10 21 22 27 35 35 33
19 25 41 50 49 46 47 49 50 51 46 41 39 39 37 33 30 26 24 24 22 19 16 13 10 6 2 3 4 5 7 12 8 10 8 16 19 22 26 30 34 35 39
14 24 36 50 52 49 46 49 51 51 48 43 41 40 37 32 31 27 26 26 24 21 17 14 10 6 2 3 4 4 7 10 12 12 23 6 22 23 28 33 35 36 41
18 23 33 48 56 52 51 49 53 52 49 46 42 40 36 33 33 28 27 26 24 21 18 15 11 7 4 3 6 6 8 12 3 15 7 21 29 27 30 31 33 38 45
19 26 31 45 60 55 53 51 52 54 51 47 44 41 38 37 34 31 29 27 23 20 18 15 11 8 5 4 7 9 9 12 14 8 14 22 24 32 30 30 33 39 45
18 24 31 36 60 60 57 55 53 53 52 49 45 42 40 39 34 33 30 27 23 20 18 15 12 9 6 4 5 8 13 17 8 13 15 23 28 32 29 31 34 41 44
9 24 35 37 46 53 51 59 58 56 55 51 47 44 43 39 37 33 29 27 24 20 17 14 11 9 7 6 13 19 20 9 19 13 23 27 34 32 29 31 36 42 44
25 29 39 40 49 50 47 51 61 60 58 53 51 49 44 31 31 26 30 29 26 20 16 13 12 8 5 6 18 21 17 14 18 17 27 36 35 31 30 33 36 41 43
26 27 43 48 53 51 50 49 57 58 47 49 48 49 42 33 30 29 26 32 26 21 12 10 10 5 10 14 11 15 17 17 18 18 30 34 39 34 32 34 38 42 43
40 34 36 56 57 54 51 47 51 50 52 49 48 53 45 40 34 34 24 23 20 19 14 17 12 12 14 13 18 17 15 17 16 12 34 34 41 39 35 34 36 38 43
42 31 38 51 63 61 57 48 50 52 55 51 51 50 47 43 37 34 30 26 21 20 18 15 14 14 12 16 13 15 16 18 17 14 24 39 38 42 38 37 38 38 40
42 46 39 50 66 62 63 56 54 56 50 52 51 50 52 44 44 36 31 27 24 21 17 16 15 14 13 14 15 16 16 19 15 16 13 34 40 38 38 35 36 37 44
47 47 42 47 65 71 70 59 57 54 51 51 48 52 53 47 49 37 30 29 25 23 23 19 17 15 13 16 19 16 17 16 16 17 17 15 32 38 32 37 37 42 48
48 47 54 49 55 75 74 68 59 52 52 49 47 52 57 54 49 47 35 33 28 26 19 19 15 14 15 16 17 19 17 19 19 18 16 15 14 18 32 32 46 48 48
48 47 50 61 58 64 80 71 64 57 55 51 49 46 52 54 52 52 40 35 38 22 22 20 17 17 15 18 18 20 17 15 16 15 21 15 16 14 17 27 41 46 45
56 55 59 60 66 67 74 75 70 61 57 51 50 50 54 50 48 50 38 36 38 26 23 19 18 15 15 16 18 22 23 15 14 13 13 13 16 19 21 28 29 28 43
61 59 57 69 70 72 76 84 78 70 63 58 53 53 54 51 48 54 38 41 36 27 24 26 20 17 12 13 14 20 22 28 20 11 12 12 15 22 25 27 31 30 25
59 63 58 69 69 77 75 80 81 75 66 62 55 54 55 52 58 55 43 35 36 25 27 25 21 14 11 13 10 17 20 14 13 17 10 15 16 23 23 27 31 34 31
63 61 66 64 72 80 80 77 87 69 65 66 60 54 55 54 54 53 47 32 36 32 22 22 18 18 14 8 16 7 13 16 27 10 20 12 15 24 23 25 33 33 30
66 66 72 64 81 83 88 74 86 79 76 72 64 54 53 56 51 53 47 36 39 30 29 20 23 13 17 12 4 6 9 14 11 16 19 26 25 29 30 32 32 28 31
69 69 67 68 74 85 91 83 91 81 74 70 64 59 56 57 55 46 41 41 34 31 34 31 20 17 7 8 6 6 10 11 10 18 31 25 29 29 30 28 25 28 30
72 73 69 71 70 78 91 87 90 89 76 71 69 64 55 51 51 50 45 42 38 43 33 31 21 19 15 12 4 3 1 5 12 18 26 30 34 32 30 23 25 28 30
Wind_Direction_850mb
169 183 177 173 176 170 175 177 179 176 172 166 163 157 159 158 155 151 151 149 150 150 155 160 157 150 135 112 95 87 86 62 47 33 17 357 352 358 2 4 14 350 336
179 200 182 181 183 174 181 180 185 182 178 172 168 163 164 162 159 156 156 158 156 160 164 169 166 159 142 122 99 77 71 54 43 29 9 337 36 357 353 352 349 339 341
177 208 190 187 189 180 184 186 188 188 184 179 172 169 170 168 163 163 162 161 164 169 173 174 170 170 158 134 84 67 59 35 24 24 40 247 346 336 338 344 343 344 346
191 220 193 192 191 184 187 190 193 193 189 184 176 172 174 174 170 169 170 167 171 176 179 181 185 188 158 139 55 18 11 6 19 47 4 29 316 329 334 338 344 351 350
174 194 195 194 190 192 188 192 194 197 193 186 180 176 177 179 178 177 178 175 175 182 185 194 201 206 192 301 19 14 12 26 42 77 30 360 353 325 339 345 343 346 346
176 191 204 194 194 192 194 191 194 196 196 190 185 183 182 182 186 186 183 180 183 187 194 203 211 221 262 340 2 8 32 51 35 312 30 334 276 329 337 338 341 346 347
193 189 216 198 197 193 198 193 195 195 199 195 192 189 190 189 192 194 188 185 188 196 201 212 223 246 286 327 318 351 20 18 2 13 335 212 307 333 336 339 342 343 345
212 199 228 205 198 196 197 197 197 199 199 199 196 195 196 198 197 200 192 192 193 199 206 217 227 249 283 295 292 322 345 358 319 299 348 287 303 329 333 336 338 343 347
215 207 218 208 196 198 201 199 201 201 200 199 200 201 203 204 202 198 198 199 201 205 211 221 230 243 244 260 299 320 332 351 356 290 327 267 291 321 329 332 337 343 347
201 208 211 199 198 199 201 201 203 204 202 202 203 206 208 206 205 201 203 207 209 212 218 225 238 241 235 263 314 327 332 337 35 322 270 260 297 317 325 328 333 340 346
196 196 203 202 198 198 201 203 202 204 206 205 207 209 208 207 204 202 206 214 220 217 226 239 252 255 253 289 332 324 330 325 317 302 292 287 296 315 321 324 330 336 342
223 216 202 203 199 193 196 204 202 206 207 206 208 206 201 195 201 198 220 219 225 225 229 245 260 260 274 305 286 340 337 313 311 318 283 288 300 314 317 321 325 333 337
250 210 213 204 203 196 194 202 199 203 198 198 197 202 185 196 199 189 217 219 219 227 237 283 264 305 287 273 271 286 294 305 310 312 289 291 303 309 313 317 322 328 334
243 230 220 206 201 196 196 201 191 195 189 192 192 200 182 190 200 196 200 199 196 227 198 220 232 238 252 270 274 281 295 308 306 303 298 299 305 311 309 312 318 323 328
250 251 215 216 200 197 197 202 194 195 192 192 195 198 187 192 201 194 195 192 207 202 220 214 224 244 253 269 266 282 300 309 306 310 298 302 304 310 314 311 311 317 322
244 247 225 204 206 199 194 200 197 194 199 194 196 201 187 190 200 197 193 189 199 201 211 225 237 246 263 256 275 288 304 310 298 288 288 306 307 310 316 318 315 316 318
242 239 235 209 218 199 199 200 197 200 197 196 197 203 188 184 211 190 190 189 197 202 205 217 230 240 252 272 279 299 313 302 310 290 298 295 303 311 320 320 317 315 317
242 235 224 216 216 215 202 200 202 202 197 196 197 199 193 187 211 183 187 191 198 198 203 211 217 231 245 260 278 293 293 300 295 306 306 279 276 295 315 315 310 314 320
242 238 234 218 214 213 208 201 201 202 199 199 196 198 199 195 204 190 188 189 202 195 203 209 218 225 245 271 280 287 296 303 294 299 277 299 308 313 299 309 309 327 324
240 238 241 226 217 217 211 202 203 202 201 201 197 199 202 194 198 190 187 195 207 193 203 204 214 233 231 260 276 280 283 283 292 285 292 312 301 314 321 311 319 325 320
237 236 239 228 216 210 213 203 201 202 201 201 200 197 203 192 195 190 192 196 196 197 200 216 225 239 249 273 294 291 274 271 279 273 276 286 298 312 306 319 325 311 313
234 234 231 224 218 212 211 209 203 198 204 200 198 197 197 191 196 195 185 195 195 197 196 212 207 215 246 276 287 288 293 254 260 300 264 294 300 310 311 304 310 315 315
235 233 231 223 219 217 207 212 204 201 204 199 196 193 200 193 199 195 185 193 206 190 209 209 221 216 241 242 290 288 308 310 319 285 302 299 279 326 319 314 316 313 319
237 231 230 226 222 221 210 204 200 201 198 194 195 198 194 187 194 191 186 188 201 187 206 208 211 204 216 252 253 289 290 301 318 311 306 314 330 330 318 315 319 319 320
236 231 228 226 226 220 212 206 206 199 195 193 194 195 190 186 193 184 183 193 189 181 198 198 205 182 207 195 239 271 291 295 316 318 314 315 315 318 316 313 314 327 323
240 228 220 222 222 220 214 208 200 196 195 189 189 186 190 186 182 178 186 188 185 193 203 198 205 203 193 176 163 98 321 326 327 321 315 320 319 322 318 316 328 330 323